Location: Coed Ely
(51.5661°N, 3.4150°W)
Time: 19:03:51
(UTC+00:00)

Cosmos 1833 Rocket - Pass Details

Date: 28 January 2021
Orbit: 833 x 839 km, 71.0° (Epoch: 27 February)

Event Time Altitude Azimuth Distance (km) Brightness Sun altitude
Rises 18:59:24 0° 326° (NNW) 3,393 6.2 -19.0°
Reaches altitude 10° 19:01:54 10° 321° (NW) 2,456 5.5 -19.4°
Maximum altitude 19:07:17 48° 249° (WSW) 1,084 3.6 -20.2°
Drops below altitude 10° 19:12:38 10° 176° (S) 2,443 5.1 -21.1°
Sets 19:15:08 0° 171° (S) 3,373 5.8 -21.5°
